sat.trackr.live / text

‹ back to catalog

STARLINK-35503

NORAD 66245 · 2025-245M

PAYLOAD ACTIVE UNKNOWN

§ Identity

Operator
Country
US
Launch date
2025-10-29
Launch site
AFETR
Launch vehicle
Mass (kg)
RCS (m²)

Purposes: comms

External: N2YO · Heavens-Above · Gunter

§ Orbital elements

Epoch: 2026-05-25T02:46:20.144352Z

Period
94.10 min
Inclination
53.1606°
Eccentricity
0.0001092
Mean motion
15.30206459 rev/d
Perigee alt
474.4 km
Apogee alt
475.9 km
Semi-major
6,853.3 km
B*
4.1748e-4
RAAN
289.1841°
Arg perigee
101.5978°
Mean anomaly
258.5145°
Rev number
3,290

§ Raw data

STARLINK-355031 66245U 25245M   26145.11551093  .00012028  00000+0  41748-3 0  99932 66245  53.1606 289.1841 0001092 101.5978 258.5145 15.30206459 32901

JSON: /api/v1/satellites/66245 · /tle

For live sub-satellite position, see the globe view (requires WebGL).

§ Visibility from observer

Set your observer location to see the next 7 days of passes ≥ 10°. The values pass through the URL so the page stays shareable.

No JS? Fill the form by hand. The geolocation button needs JavaScript.